Weather Roundup
Issued by NWS Chicago, IL

Home | Current Version | Previous Version | Text Only | Print | Product List | Glossary Off
Versions: 1 2 3 4 5 6 7 8 9 10 11 12 13 14 15 16 17 18 19 20 21 22 23 24 25 26 27 28 29 30 31 32 33 34 35 36 37 38 39 40 41 42 43 44 45 46 47 48 49 50

000
NZUS59 KLOT 311400
HRRLOT

CHICAGO AREA WEATHER ROUNDUP
NATIONAL WEATHER SERVICE CHICAGO/ROMEOVILLE IL
900 AM CDT THU JUL 31 2014

NOTE: "FAIR" INDICATES FEW OR NO CLOUDS BELOW 12,000 FEET WITH NO
SIGNIFICANT WEATHER AND/OR OBSTRUCTIONS TO VISIBILITY.

* THESE STATIONS ARE NOT UNDER NWS QUALITY CONTROL. THEY ALSO MAY NOT
  REPORT WEATHER SUCH AS PRECIPITATION OR FOG.

ILZ005-006-012>014-019>023-311500-
NORTHEAST ILLINOIS

CITY           SKY/WX    TMP DP  RH WIND       PRES   REMARKS
OHARE          MOSUNNY   71  54  54 W9        30.03S
MIDWAY         MOSUNNY   73  56  54 SW13      30.04S
AURORA         SUNNY     69  59  70 W8        30.05S
LANSING*       SUNNY     70  57  64 W8        30.05S
WAUKEGAN       SUNNY     69  58  67 SW6       30.02S
DUPAGE AIRPORT SUNNY     70  58  65 SW12      30.04S
WHEELING       SUNNY     71  58  63 W7        30.04F
NORTHERLY IS     N/A     71  55  56 W7          N/A
$$

WIZ051-052-058>065-066-070>072-311500-
SOUTHEAST WISCONSIN

CITY           SKY/WX    TMP DP  RH WIND       PRES   REMARKS
MILWAUKEE      SUNNY     70  57  63 W7        30.01S
KENOSHA*       SUNNY     69  61  75 W6        30.02F
RACINE*        SUNNY     69  59  70 W7        30.03S
WAUKESHA       SUNNY     66  59  77 SW5       30.03S
$$

INZ001>003-010>013-019-020-311500-
NORTHWEST INDIANA

CITY           SKY/WX    TMP DP  RH WIND       PRES   REMARKS
GARY*          MOSUNNY   72  59  64 SW9       30.05S FOG
MICHIGAN CITY* NOT AVBL
RENSSELAER*    NOT AVBL
VALPARAISO     SUNNY     69  61  75 SW6       30.06S
$$

LMZ740>746-311500-
SOUTHERN LAKE MICHIGAN

STATION/POSITION TIME  SKY/WX   TEMP WIND        PRES    VSBY
                                AIR  DIR/SP/G
                 (UTC)          (F)  (DEG/KT/KT) (MB)    (MI)
HARRISON CRIB    1300            68  260/ 12/ 13   N/A
BURNHAM HARBOR   1400            71  260/  7/  8   N/A
CALUMET HARBOR   1300            68  210/  4/  5 1016.0S
BURNS HARBOR     NOT AVBL
MICHIGAN CITY    1300            65  180/ 10/ 12   N/A
$$

ABBREVIATIONS USED IN REMARKS
   TC - TEMPERATURE IN CELSIUS
  WCI - WIND CHILL INDEX
   HX - HEAT INDEX
  VSB - VISIBILITY
$$



USA.gov is the U.S. government's official web portal to all federal, state and local government web resources and services.